Regional Weather Roundup
Issued by NWS Albany, NY

Home | Current Version | Previous Version | Text Only | Print | Product List | Glossary On
Versions: 1 2 3 4 5 6 7 8 9 10 11 12 13 14 15 16 17 18 19 20 21 22 23 24 25 26 27
000
ASUS41 KALY 281310
RWRALY

NEW YORK STATE HOURLY WEATHER ROUNDUP
NATIONAL WEATHER SERVICE ALBANY NY
900 AM EDT FRI JUL 28 2017

NOTE: "FAIR" INDICATES FEW OR NO CLOUDS BELOW 12,000 FEET WITH NO
SIGNIFICANT WEATHER AND/OR NO OBSTRUCTIONS TO VISIBILITY.

NYZ032-033-038>043-046>054-057>066-NYZ062>081-082-084-281400-
EAST


CITY           SKY/WX    TMP DP  RH WIND       PRES   REMARKS
ALBANY         PTSUNNY   69  63  81 N7        29.91R
GLENS FALLS    CLOUDY    67  55  65 NE8       29.92R
POUGHKEEPSIE   CLOUDY    69  65  86 CALM      29.88S
NEWBURGH       PTSUNNY   73  68  83 E12       29.91R
MONTGOMERY     CLOUDY    71  66  84 N5        29.89S
WHITE PLAINS   MOSUNNY   75  67  76 CALM      29.88S
ISLIP          PTSUNNY   78  72  81 N9        29.86S
NEW YORK CITY  CLOUDY    73  70  90 NE9       29.86S FOG
CENTRAL PARK   CLOUDY    76  70  82 VRB5      29.89S HAZE
$$

NYZ005>009-017-018-044>046-055-056-281400-
CENTRAL


CITY           SKY/WX    TMP DP  RH WIND       PRES   REMARKS
FULTON         CLOUDY    68  61  78 N9        29.95R
SYRACUSE       CLOUDY    68  64  87 CALM      29.93S
ROME           CLOUDY    67  63  87 N3        29.93F
ELMIRA         CLOUDY    69  66  90 E6        29.93R
BINGHAMTON     CLOUDY    64  62  93 NE5       29.94S
$$

NYZ026>034-041>043-087-281400-
NORTH


CITY           SKY/WX    TMP DP  RH WIND       PRES   REMARKS
WATERTOWN      PTSUNNY   64  57  78 NE10      29.96S
FORT DRUM      NOT AVBL
OGDENSBURG     FAIR      64  53  68 N8        29.97S
MASSENA        SUNNY     65  54  67 N9        29.98R
SARANAC LAKE   CLOUDY    59  57  93 W3        29.95S
PLATTSBURGH    SUNNY     67  50  54 NE9       29.93S
$$

NYZ001>004-010>016-019>021-085-281400-
WEST


CITY           SKY/WX    TMP DP  RH WIND       PRES   REMARKS
NIAGARA FALLS  CLOUDY    69  60  73 E13       29.96R
BUFFALO        CLOUDY    67  61  81 NE13G28   29.95S
DUNKIRK        CLOUDY    68  64  87 E9        29.93S
JAMESTOWN      PTSUNNY   66  61  82 E8        29.94S
WELLSVILLE     CLOUDY    65  62  90 E5        29.98S FOG
ROCHESTER      PTSUNNY   69  62  78 NE13      29.96S
PENN YAN       CLOUDY    68  62  81 VRB6      29.95S
$$

             KEY
       WCI = WIND CHILL INDEX
       VSB = VISIBILITY
       HX  = HEAT INDEX
$$




USA.gov is the U.S. government's official web portal to all federal, state and local government web resources and services.